Tiempo cada hora Bolshie Lopatki

Hoy, 2 Agosto, Lunes

Tiempo Temperatura Precipitaciones Viento Presión Humedad
00:00 +19°C° 0.1 mm 1 mps 738 mmHg 90%
01:00 +19°C° 0.1 mm 1 mps 738 mmHg 90%
02:00 +19°C° 0.1 mm 1 mps 738 mmHg 91%
03:00 +19°C° 0.1 mm 1 mps 738 mmHg 92%
04:00 +18°C° 0.1 mm 2 mps 737 mmHg 93%
05:00 +18°C° 0.1 mm 2 mps 737 mmHg 95%
06:00 +20°C° 0 mm 2 mps 737 mmHg 88%
07:00 +21°C° 0 mm 3 mps 737 mmHg 82%
08:00 +24°C° 0 mm 3 mps 736 mmHg 75%
09:00 +26°C° 0 mm 4 mps 736 mmHg 68%
10:00 +28°C° 0 mm 4 mps 736 mmHg 61%
11:00 +30°C° 0 mm 5 mps 735 mmHg 53%
12:00 +30°C° 0 mm 5 mps 735 mmHg 51%
13:00 +32°C° 0 mm 6 mps 734 mmHg 49%
14:00 +33°C° 0 mm 6 mps 734 mmHg 47%
15:00 +30°C° 0.4 mm 5 mps 733 mmHg 52%
16:00 +29°C° 0.4 mm 5 mps 733 mmHg 58%
17:00 +28°C° 0.4 mm 5 mps 733 mmHg 64%
18:00 +25°C° 2.6 mm 4 mps 733 mmHg 74%
19:00 +22°C° 2.6 mm 3 mps 734 mmHg 84%
20:00 +19°C° 2.6 mm 2 mps 735 mmHg 94%
21:00 +18°C° 0.1 mm 2 mps 735 mmHg 94%
22:00 +18°C° 0.1 mm 3 mps 735 mmHg 94%
23:00 +17°C° 0.1 mm 3 mps 735 mmHg 94%

Mañana, 3 Agosto, Martes

Tiempo Temperatura Precipitaciones Viento Presión Humedad
00:00 +16°C° 0 mm 3 mps 735 mmHg 95%
01:00 +16°C° 0 mm 2 mps 736 mmHg 96%
02:00 +15°C° 0 mm 2 mps 736 mmHg 97%
03:00 +15°C° 0 mm 2 mps 736 mmHg 97%
04:00 +14°C° 0 mm 2 mps 737 mmHg 97%
05:00 +14°C° 0 mm 2 mps 737 mmHg 97%
06:00 +15°C° 0 mm 2 mps 738 mmHg 90%
07:00 +17°C° 0 mm 2 mps 738 mmHg 84%
08:00 +18°C° 0 mm 3 mps 738 mmHg 77%
09:00 +19°C° 0.1 mm 3 mps 739 mmHg 74%
10:00 +20°C° 0.1 mm 3 mps 739 mmHg 70%
11:00 +21°C° 0.1 mm 4 mps 739 mmHg 66%
12:00 +22°C° 0.1 mm 4 mps 739 mmHg 57%
13:00 +23°C° 0.1 mm 5 mps 739 mmHg 48%
14:00 +25°C° 0.1 mm 5 mps 739 mmHg 39%
15:00 +23°C° 0 mm 4 mps 739 mmHg 44%
16:00 +22°C° 0 mm 4 mps 739 mmHg 48%
17:00 +21°C° 0 mm 3 mps 739 mmHg 53%
18:00 +19°C° 0 mm 3 mps 740 mmHg 58%
19:00 +18°C° 0 mm 2 mps 740 mmHg 64%
20:00 +17°C° 0 mm 2 mps 740 mmHg 69%
21:00 +17°C° 0 mm 2 mps 740 mmHg 69%
22:00 +17°C° 0 mm 2 mps 741 mmHg 69%
23:00 +17°C° 0 mm 2 mps 741 mmHg 69%

Pasado mañana, 4 Agosto, Miércoles

Tiempo Temperatura Precipitaciones Viento Presión Humedad
00:00 +16°C° 0 mm 2 mps 741 mmHg 72%
01:00 +16°C° 0 mm 2 mps 741 mmHg 75%
02:00 +15°C° 0 mm 2 mps 741 mmHg 78%
03:00 +14°C° 0 mm 2 mps 742 mmHg 81%
04:00 +14°C° 0 mm 2 mps 742 mmHg 84%
05:00 +13°C° 0 mm 1 mps 742 mmHg 87%
06:00 +15°C° 0 mm 2 mps 742 mmHg 80%
07:00 +17°C° 0 mm 2 mps 743 mmHg 72%
08:00 +19°C° 0 mm 2 mps 743 mmHg 64%
09:00 +20°C° 0.3 mm 2 mps 743 mmHg 64%
10:00 +21°C° 0.3 mm 3 mps 743 mmHg 64%
11:00 +21°C° 0.3 mm 3 mps 743 mmHg 64%
12:00 +22°C° 0.4 mm 3 mps 743 mmHg 60%
13:00 +23°C° 0.4 mm 2 mps 743 mmHg 56%
14:00 +24°C° 0.4 mm 2 mps 743 mmHg 53%
15:00 +24°C° 0 mm 2 mps 743 mmHg 55%
16:00 +23°C° 0 mm 1 mps 743 mmHg 57%
17:00 +23°C° 0 mm 1 mps 743 mmHg 59%
18:00 +22°C° 0 mm 1 mps 743 mmHg 61%
19:00 +21°C° 0 mm 1 mps 743 mmHg 64%
20:00 +20°C° 0 mm 1 mps 744 mmHg 67%
21:00 +19°C° 0 mm 1 mps 744 mmHg 67%
22:00 +19°C° 0 mm 1 mps 744 mmHg 67%
23:00 +19°C° 0 mm 1 mps 744 mmHg 67%

5 Agosto, Jueves

Tiempo Temperatura Precipitaciones Viento Presión Humedad
00:00 +18°C° 0 mm 1 mps 744 mmHg 68%
01:00 +18°C° 0 mm 1 mps 744 mmHg 68%
02:00 +18°C° 0 mm 1 mps 744 mmHg 69%
03:00 +16°C° 0 mm 0 mps 744 mmHg 70%
04:00 +16°C° 0 mm 0 mps 744 mmHg 72%
05:00 +15°C° 0 mm 0 mps 744 mmHg 74%
06:00 +17°C° 0 mm 0 mps 744 mmHg 69%
07:00 +18°C° 0 mm 0 mps 744 mmHg 65%
08:00 +22°C° 0 mm 1 mps 745 mmHg 60%
09:00 +23°C° 0.1 mm 1 mps 744 mmHg 56%
10:00 +24°C° 0.1 mm 1 mps 744 mmHg 52%
11:00 +25°C° 0.1 mm 1 mps 744 mmHg 48%
12:00 +25°C° 0.1 mm 1 mps 744 mmHg 52%
13:00 +24°C° 0.1 mm 1 mps 744 mmHg 56%
14:00 +24°C° 0.1 mm 1 mps 744 mmHg 59%
15:00 +23°C° 0.3 mm 2 mps 744 mmHg 66%
16:00 +20°C° 0.3 mm 2 mps 744 mmHg 72%
17:00 +19°C° 0.3 mm 2 mps 744 mmHg 78%
18:00 +19°C° 0 mm 1 mps 744 mmHg 80%
19:00 +19°C° 0 mm 1 mps 744 mmHg 83%
20:00 +18°C° 0 mm 1 mps 744 mmHg 85%
21:00 +16°C° 0 mm 1 mps 744 mmHg 87%
22:00 +16°C° 0 mm 1 mps 744 mmHg 89%
23:00 +15°C° 0 mm 2 mps 744 mmHg 91%

6 Agosto, Viernes

Tiempo Temperatura Precipitaciones Viento Presión Humedad
00:00 +15°C° 0 mm 2 mps 744 mmHg 91%
01:00 +15°C° 0 mm 2 mps 744 mmHg 90%
02:00 +15°C° 0 mm 2 mps 744 mmHg 90%
03:00 +15°C° 0 mm 2 mps 744 mmHg 91%
04:00 +15°C° 0 mm 2 mps 743 mmHg 92%
05:00 +14°C° 0 mm 3 mps 743 mmHg 93%
06:00 +17°C° 0 mm 3 mps 743 mmHg 85%
07:00 +18°C° 0 mm 4 mps 743 mmHg 78%
08:00 +20°C° 0 mm 5 mps 743 mmHg 71%
09:00 +20°C° 0.1 mm 4 mps 743 mmHg 71%
10:00 +20°C° 0.1 mm 4 mps 743 mmHg 70%
11:00 +20°C° 0.1 mm 4 mps 743 mmHg 70%
12:00 +20°C° 0.5 mm 4 mps 742 mmHg 74%
13:00 +20°C° 0.5 mm 5 mps 742 mmHg 77%
14:00 +19°C° 0.5 mm 5 mps 742 mmHg 81%
15:00 +20°C° 0 mm 5 mps 742 mmHg 75%
16:00 +22°C° 0 mm 5 mps 741 mmHg 68%
17:00 +23°C° 0 mm 6 mps 741 mmHg 61%
18:00 +22°C° 0 mm 6 mps 740 mmHg 63%
19:00 +21°C° 0 mm 5 mps 740 mmHg 64%
20:00 +20°C° 0 mm 5 mps 740 mmHg 66%
21:00 +20°C° 0 mm 5 mps 740 mmHg 65%
22:00 +20°C° 0 mm 5 mps 740 mmHg 64%
23:00 +20°C° 0 mm 4 mps 740 mmHg 63%

7 Agosto, Sábado

Tiempo Temperatura Precipitaciones Viento Presión Humedad
00:00 +20°C° 0 mm 4 mps 740 mmHg 64%
01:00 +19°C° 0 mm 3 mps 740 mmHg 66%
02:00 +19°C° 0 mm 2 mps 740 mmHg 67%
03:00 +18°C° 0.1 mm 2 mps 740 mmHg 72%
04:00 +18°C° 0.1 mm 2 mps 740 mmHg 76%
05:00 +17°C° 0.1 mm 2 mps 741 mmHg 81%
06:00 +18°C° 0.3 mm 2 mps 741 mmHg 85%
07:00 +19°C° 0.3 mm 1 mps 741 mmHg 89%
08:00 +19°C° 0.3 mm 1 mps 741 mmHg 93%
09:00 +20°C° 0.2 mm 1 mps 742 mmHg 92%
10:00 +20°C° 0.2 mm 1 mps 742 mmHg 90%
11:00 +21°C° 0.2 mm 1 mps 742 mmHg 89%
12:00 +21°C° 0.2 mm 1 mps 742 mmHg 89%
13:00 +21°C° 0.2 mm 1 mps 742 mmHg 89%
14:00 +21°C° 0.2 mm 1 mps 742 mmHg 89%
15:00 +21°C° 0.6 mm 1 mps 742 mmHg 90%
16:00 +20°C° 0.6 mm 1 mps 743 mmHg 90%
17:00 +19°C° 0.6 mm 2 mps 743 mmHg 91%
18:00 +20°C° 1 mm 1 mps 743 mmHg 93%
19:00 +19°C° 1 mm 1 mps 743 mmHg 96%
20:00 +19°C° 1 mm 1 mps 743 mmHg 98%
21:00 +19°C° 0.5 mm 1 mps 744 mmHg 98%
22:00 +18°C° 0.5 mm 1 mps 744 mmHg 98%
23:00 +18°C° 0.5 mm 1 mps 744 mmHg 98%
Mostrar más